Tracking 33188 objects as of 10-Feb-2026
HD Live streaming from Space Station
objects crossing your sky now

ORBCOMM FM 103

Track ORBCOMM FM 103 now!
10-day predictions
ORBCOMM FM 103 is classified as:


NORAD ID: 40091
Int'l Code: 2014-040F
Perigee: 703.0 km
Apogee: 706.3 km
Inclination: 47.0 °
Period: 98.7 minutes
Semi major axis: 7075 km
RCS: Unknown
Launch date: July 14, 2014
Source: United States (US)
Launch site: AIR FORCE EASTERN TEST RANGE (AFETR)
Your satellite tracking list
Your tracking list is empty




NASA's NSSDC Master Catalog

Two Line Element Set (TLE):
1 40091U 14040F   26041.18641506  .00000777  00000-0  20147-3 0  9995
2 40091  47.0068 333.4298 0002358 291.8790  68.1844 14.58663316598845
Source of the keplerian elements: AFSPC